sat.trackr.live / text

‹ back to catalog

STARLINK-37632

NORAD 69374 · 2026-123X

PAYLOAD ACTIVE UNKNOWN

§ Identity

Operator
Country
US
Launch date
2026-06-04
Launch site
AFETR
Launch vehicle
Mass (kg)
RCS (m²)

Purposes: comms

External: N2YO · Heavens-Above · Gunter

§ Orbital elements

Epoch: 2026-09-19T22:49:20.294976Z

Period
93.85 min
Inclination
53.1570°
Eccentricity
0.0001282
Mean motion
15.34394945 rev/d
Perigee alt
461.8 km
Apogee alt
463.6 km
Semi-major
6,840.9 km
B*
6.2090e-4
RAAN
144.3973°
Arg perigee
82.8458°
Mean anomaly
277.2691°
Rev number
1,678

§ Raw data

STARLINK-376321 69374U 26123X   26262.95092934  .00020656  00000+0  62090-3 0  99902 69374  53.1570 144.3973 0001282  82.8458 277.2691 15.34394945 16784

JSON: /api/v1/satellites/69374 · /tle

For live sub-satellite position, see the globe view (requires WebGL).

§ Visibility from observer

Set your observer location to see the next 7 days of passes ≥ 10°. The values pass through the URL so the page stays shareable.

No JS? Fill the form by hand. The geolocation button needs JavaScript.